Location: Gorze? G�rny
(49.8500°N, 19.5000°E)
Time: 04:22:38
(UTC+00:00)

Cosmos 1733 - Pass Details

Date: 13 May 2021
Orbit: 505 x 519 km, 82.5° (Epoch: 23 June)

Event Time Altitude Azimuth Distance (km) Brightness Sun altitude
Rises 23:26:21 0° 343° (NNW) 2,624 7.8 -20.7°
Reaches altitude 10° 23:28:35 10° 335° (NNW) 1,735 6.6 -20.6°
Enters shadow 23:32:05 36° 268° (W) 816 4.0 -20.5°
